Weather History for KTZR - December, 2012

Change the Weather History Date:

Saturday, December 22, 2012

  Actual Average Record
Temperature  
Mean Temperature 26 °F -  
Max Temperature 31 °F 35 °F 61 °F (2013)
Min Temperature 22 °F 23 °F 1 °F (2008)
Degree Days  
Heating Degree Days 38    
Moisture  
Dew Point 22 °F    
Average Humidity 81    
Maximum Humidity 87    
Minimum Humidity 74    
Precipitation  
Precipitation 0.00 in - - ()
Sea Level Pressure  
Sea Level Pressure 30.07 in    
Wind  
Wind Speed 13 mph (West)    
Max Wind Speed 20 mph    
Max Gust Speed 32 mph    
Visibility 10 miles    
Events      
Averages and records for this station are not official NWS values.
T = Trace of Precipitation, MM = Missing Value Source: NWS Daily Summary

Daily Weather History Graph

Daily Weather History Graph

Search for Another Location

Airport or City:

Trip Planner

Search our weather history database for the weather conditions in past years. The results will help you decide how hot, cold, wet, or windy it might be!

Date:

Astronomy

Dec. 22, 2012 Rise Set
Actual Time 7:51 AM EST 5:11 PM EST
Civil Twilight 7:20 AM EST 5:42 PM EST
Nautical Twilight 6:46 AM EST 6:16 PM EST
Astronomical Twilight 6:13 AM EST 6:49 PM EST
Moon 1:28 PM EST (12/22) 2:35 AM EST (12/22)
Length of Visible Light 10h 21m
Length of Day
9h 20m
Waxing Gibbous, 73% of the Moon is Illuminated
Dec 22
Waxing Gibbous
Dec 28
Full
Jan 4
Last Quarter
Jan 11
New
Jan 18
First Quarter

Hourly Weather History & Observations

Time (EST) Temp. Windchill Dew Point Humidity Pressure Visibility Wind Dir Wind Speed Gust Speed Precip Events Conditions
12:15 AM 31.3 °F 19.9 °F 26.1 °F 81% 29.93 in 10.0 mi West 17.3 mph 31.1 mph N/A   Overcast
12:35 AM 31.1 °F 19.7 °F 26.1 °F 82% 29.94 in 10.0 mi West 17.3 mph 26.5 mph N/A   Overcast
12:55 AM 31.1 °F 18.9 °F 25.5 °F 80% 29.95 in 10.0 mi West 19.6 mph 29.9 mph N/A   Overcast
1:15 AM 31.1 °F 20.9 °F 25.3 °F 79% 29.95 in 10.0 mi West 13.8 mph 32.2 mph N/A   Overcast
1:35 AM 30.7 °F 20.4 °F 25.2 °F 80% 29.96 in 10.0 mi West 13.8 mph 23.0 mph N/A   Overcast
1:55 AM 30.7 °F 20.4 °F 24.8 °F 79% 29.97 in 10.0 mi West 13.8 mph 21.9 mph N/A   Overcast
2:15 AM 30.7 °F 20.0 °F 24.4 °F 77% 29.99 in 10.0 mi West 15.0 mph 18.4 mph N/A   Overcast
2:35 AM 30.4 °F 19.5 °F 24.1 °F 77% 30.01 in 10.0 mi West 15.0 mph 19.6 mph N/A   Mostly Cloudy
2:55 AM 30.6 °F 20.7 °F 24.4 °F 78% 30.01 in 10.0 mi West 12.7 mph 18.4 mph N/A   Mostly Cloudy
3:15 AM 29.8 °F 19.3 °F 24.6 °F 81% 30.02 in 10.0 mi West 13.8 mph 18.4 mph N/A   Overcast
3:35 AM 29.7 °F 19.1 °F 24.6 °F 81% 30.03 in 10.0 mi West 13.8 mph 18.4 mph N/A   Overcast
3:55 AM 29.3 °F 19.6 °F 24.4 °F 82% 30.04 in 10.0 mi West 11.5 mph 19.6 mph N/A   Overcast
4:15 AM 29.3 °F 19.6 °F 24.6 °F 83% 30.04 in 10.0 mi West 11.5 mph 17.3 mph N/A   Overcast
4:35 AM 29.1 °F 18.9 °F 24.3 °F 82% 30.05 in 10.0 mi West 12.7 mph 19.6 mph N/A   Overcast
4:55 AM 29.1 °F 18.9 °F 24.4 °F 83% 30.04 in 10.0 mi West 12.7 mph 17.3 mph N/A   Overcast
5:15 AM 28.9 °F 18.6 °F 24.3 °F 83% 30.05 in 10.0 mi WSW 12.7 mph 19.6 mph N/A   Overcast
5:35 AM 28.8 °F 18.4 °F 23.9 °F 82% 30.06 in 10.0 mi West 12.7 mph 18.4 mph N/A   Overcast
5:55 AM 28.9 °F 18.6 °F 24.1 °F 82% 30.07 in 10.0 mi West 12.7 mph 18.4 mph N/A   Overcast
6:15 AM 28.8 °F 18.4 °F 23.9 °F 82% 30.07 in 10.0 mi West 12.7 mph - N/A   Overcast
6:35 AM 28.9 °F 19.2 °F 23.9 °F 81% 30.08 in 10.0 mi West 11.5 mph 17.3 mph N/A   Overcast
6:55 AM 28.8 °F 19.0 °F 23.9 °F 82% 30.09 in 10.0 mi WSW 11.5 mph 20.7 mph N/A   Overcast
7:15 AM 28.4 °F 19.1 °F 23.9 °F 83% 30.09 in 10.0 mi West 10.4 mph - N/A   Overcast
7:47 AM 28.4 °F 18.5 °F 23.0 °F 80% 30.09 in 10.0 mi West 11.5 mph - N/A   Overcast
8:55 AM 28.4 °F 18.5 °F 23.0 °F 80% 30.13 in 10.0 mi West 11.5 mph - N/A   Overcast
10:55 AM 28.4 °F 17.5 °F 21.2 °F 74% 30.17 in 10.0 mi West 13.8 mph 20.7 mph N/A   Overcast
11:50 AM 28.4 °F 18.0 °F 21.2 °F 74% 30.15 in 10.0 mi West 12.7 mph 18.4 mph N/A   Overcast
12:47 PM 28.4 °F 17.0 °F 21.2 °F 74% 30.14 in 10.0 mi WSW 15.0 mph - N/A   Overcast
1:50 PM 28.4 °F 17.5 °F 21.2 °F 74% 30.15 in 10.0 mi WSW 13.8 mph - N/A   Mostly Cloudy
2:50 PM 28.4 °F 18.5 °F 21.2 °F 74% 30.14 in 10.0 mi WSW 11.5 mph - N/A   Mostly Cloudy
3:50 PM 28.4 °F 18.5 °F 21.2 °F 74% 30.13 in 10.0 mi WSW 11.5 mph - N/A   Scattered Clouds
4:50 PM 28.4 °F 24.6 °F 21.2 °F 74% 30.13 in 10.0 mi WSW 3.5 mph - N/A   Clear
5:50 PM 24.8 °F - 19.4 °F 80% 30.12 in 10.0 mi Calm Calm - N/A   Clear
6:50 PM 24.8 °F - 19.4 °F 80% 30.12 in 10.0 mi Calm Calm - N/A   Clear
8:15 PM 23.0 °F - 19.4 °F 86% 30.12 in 10.0 mi Calm Calm - N/A   Clear
8:35 PM 23.0 °F - 19.4 °F 86% 30.12 in 10.0 mi North - - N/A   Clear
8:55 PM 22.8 °F - 19.4 °F 87% 30.12 in 10.0 mi North - - N/A   Clear
9:15 PM 23.4 °F - 20.1 °F 87% 30.11 in 10.0 mi North - - N/A   Clear
9:35 PM 23.0 °F - 19.4 °F 86% 30.10 in 10.0 mi North - - N/A   Clear
9:55 PM 23.7 °F 16.6 °F 19.9 °F 85% 30.09 in 10.0 mi SSW 5.8 mph - N/A   Clear
10:15 PM 23.9 °F - 19.9 °F 85% 30.08 in 10.0 mi North - - N/A   Clear
10:35 PM 23.9 °F 16.8 °F 19.8 °F 84% 30.08 in 10.0 mi SSW 5.8 mph - N/A   Clear
10:55 PM 24.3 °F - 20.1 °F 84% 30.08 in 10.0 mi North - - N/A   Clear
11:15 PM 23.9 °F 15.8 °F 20.1 °F 85% 30.08 in 10.0 mi SSW 6.9 mph - N/A   Clear
11:35 PM 22.5 °F 13.2 °F 19.0 °F 87% 30.07 in 10.0 mi SW 8.1 mph - N/A   Clear
11:55 PM 23.2 °F - 19.6 °F 86% 30.07 in 10.0 mi North - - N/A   Clear